Time,TemperatureF,DewpointF,PressureIn,WindDirection,WindDirectionDegrees,WindSpeedMPH,WindSpeedGustMPH,Humidity,HourlyPrecipIn,Conditions,Clouds,dailyrainin,SoftwareType,DateUTC
2013-03-21 00:04:00,38.5,29.8,29.91,SSW,213,3.0,4.9,71,0.00,,,-99.99,FreeWX-Wi 1.01,2013-03-21 07:04:00,
2013-03-21 00:09:00,38.5,30.2,29.91,SW,218,2.0,3.1,72,0.00,,,-99.99,FreeWX-Wi 1.01,2013-03-21 07:09:00,
2013-03-21 00:14:00,38.5,30.2,29.91,SW,215,2.0,6.7,72,0.00,,,-99.99,FreeWX-Wi 1.01,2013-03-21 07:14:00,
2013-03-21 00:19:00,38.5,30.6,29.91,SW,215,2.0,7.6,73,0.00,,,-99.99,FreeWX-Wi 1.01,2013-03-21 07:19:00,
2013-03-21 00:24:00,38.7,30.7,29.91,SW,214,3.0,10.5,73,0.00,,,-99.99,FreeWX-Wi 1.01,2013-03-21 07:24:00,
2013-03-21 00:29:00,38.7,31.1,29.91,SW,214,3.0,6.3,74,0.00,,,-99.99,FreeWX-Wi 1.01,2013-03-21 07:29:00,
2013-03-21 00:34:00,38.8,31.3,29.91,SW,216,3.0,6.3,74,0.00,,,-99.99,FreeWX-Wi 1.01,2013-03-21 07:34:00,
2013-03-21 00:39:00,38.8,31.6,29.94,SW,216,3.0,5.4,75,0.00,,,-99.99,FreeWX-Wi 1.01,2013-03-21 07:39:00,
2013-03-21 00:44:00,38.8,31.6,29.94,SW,214,2.0,5.8,75,0.00,,,-99.99,FreeWX-Wi 1.01,2013-03-21 07:44:00,
2013-03-21 00:49:00,38.8,31.6,29.94,SW,214,3.0,6.3,75,0.00,,,-99.99,FreeWX-Wi 1.01,2013-03-21 07:49:00,
2013-03-21 00:59:00,38.7,31.5,29.94,SSW,212,3.0,9.6,75,0.00,,,-99.99,FreeWX-Wi 1.01,2013-03-21 07:59:00,
2013-03-21 01:04:00,38.3,31.1,29.94,SSW,213,3.0,7.6,75,0.00,,,-99.99,FreeWX-Wi 1.01,2013-03-21 08:04:00,
2013-03-21 01:14:00,38.1,30.9,29.94,SSW,210,3.0,5.4,75,0.00,,,-99.99,FreeWX-Wi 1.01,2013-03-21 08:14:00,
2013-03-21 01:19:00,38.3,31.1,29.94,SSW,209,3.0,5.8,75,0.00,,,-99.99,FreeWX-Wi 1.01,2013-03-21 08:19:00,
2013-03-21 01:24:00,38.5,31.3,29.94,SSW,210,3.0,6.3,75,0.00,,,-99.99,FreeWX-Wi 1.01,2013-03-21 08:24:00,
2013-03-21 01:29:00,38.5,31.3,29.94,SSW,209,3.0,4.9,75,0.00,,,-99.99,FreeWX-Wi 1.01,2013-03-21 08:29:00,
2013-03-21 01:34:00,38.7,31.5,29.94,SSW,206,3.0,8.1,75,0.00,,,-99.99,FreeWX-Wi 1.01,2013-03-21 08:34:00,
2013-03-21 01:39:00,38.7,31.5,29.94,SSW,199,2.0,6.7,75,0.00,,,-99.99,FreeWX-Wi 1.01,2013-03-21 08:39:00,
2013-03-21 01:44:00,38.7,31.1,29.94,SSW,198,2.0,6.3,74,0.00,,,-99.99,FreeWX-Wi 1.01,2013-03-21 08:44:00,
2013-03-21 01:49:00,38.7,31.1,29.94,SSW,203,2.0,8.1,74,0.00,,,-99.99,FreeWX-Wi 1.01,2013-03-21 08:49:00,
2013-03-21 01:54:00,38.7,31.1,29.94,SSW,207,2.0,5.4,74,0.00,,,-99.99,FreeWX-Wi 1.01,2013-03-21 08:54:00,
2013-03-21 01:59:00,38.7,31.1,29.94,SSW,210,3.0,8.3,74,0.00,,,-99.99,FreeWX-Wi 1.01,2013-03-21 08:59:00,
2013-03-21 02:04:00,38.7,31.1,29.94,SW,217,2.0,3.6,74,0.00,,,-99.99,FreeWX-Wi 1.01,2013-03-21 09:04:00,
2013-03-21 02:09:00,38.7,31.1,29.97,SW,221,2.0,3.1,74,0.00,,,-99.99,FreeWX-Wi 1.01,2013-03-21 09:09:00,
2013-03-21 02:19:00,38.7,31.5,29.97,SW,231,2.0,2.7,75,0.00,,,-99.99,FreeWX-Wi 1.01,2013-03-21 09:19:00,
2013-03-21 02:24:00,38.7,31.5,29.97,SW,233,2.0,4.0,75,0.00,,,-99.99,FreeWX-Wi 1.01,2013-03-21 09:24:00,
2013-03-21 02:29:00,38.7,31.5,29.97,SW,235,2.0,5.4,75,0.00,,,-99.99,FreeWX-Wi 1.01,2013-03-21 09:29:00,
2013-03-21 02:34:00,38.7,31.5,29.97,SW,233,2.0,5.4,75,0.00,,,-99.99,FreeWX-Wi 1.01,2013-03-21 09:34:00,
2013-03-21 02:39:00,38.7,31.8,29.97,SW,230,2.0,4.9,76,0.00,,,-99.99,FreeWX-Wi 1.01,2013-03-21 09:39:00,
2013-03-21 02:49:00,38.7,31.8,29.97,SW,220,2.0,8.3,76,0.00,,,-99.99,FreeWX-Wi 1.01,2013-03-21 09:49:00,
2013-03-21 02:54:00,38.5,31.6,29.97,SW,215,2.0,8.1,76,0.00,,,-99.99,FreeWX-Wi 1.01,2013-03-21 09:54:00,
2013-03-21 02:59:00,38.5,31.6,29.97,SSW,212,3.0,6.7,76,0.00,,,-99.99,FreeWX-Wi 1.01,2013-03-21 09:59:00,
2013-03-21 03:04:00,38.5,31.6,29.97,SSW,213,3.0,5.8,76,0.00,,,-99.99,FreeWX-Wi 1.01,2013-03-21 10:04:00,
2013-03-21 03:09:00,38.5,31.6,29.97,SSW,213,3.0,8.3,76,0.00,,,-99.99,FreeWX-Wi 1.01,2013-03-21 10:09:00,
2013-03-21 03:14:00,38.5,31.6,29.97,SW,217,3.0,5.8,76,0.00,,,-99.99,FreeWX-Wi 1.01,2013-03-21 10:14:00,
2013-03-21 03:19:00,38.5,31.6,29.97,SW,217,3.0,5.8,76,0.00,,,-99.99,FreeWX-Wi 1.01,2013-03-21 10:19:00,
2013-03-21 03:24:00,38.5,31.6,29.97,SW,216,3.0,4.5,76,0.00,,,-99.99,FreeWX-Wi 1.01,2013-03-21 10:24:00,
2013-03-21 03:29:00,38.5,31.8,29.97,SW,216,3.0,5.4,77,0.00,,,-99.99,FreeWX-Wi 1.01,2013-03-21 10:29:00,
2013-03-21 03:34:00,38.5,31.8,29.97,SW,216,2.0,3.1,77,0.00,,,-99.99,FreeWX-Wi 1.01,2013-03-21 10:34:00,
2013-03-21 03:39:00,38.5,31.8,30.00,SW,218,2.0,2.7,77,0.00,,,-99.99,FreeWX-Wi 1.01,2013-03-21 10:39:00,
2013-03-21 03:44:00,38.5,31.8,30.00,SW,217,2.0,5.4,77,0.00,,,-99.99,FreeWX-Wi 1.01,2013-03-21 10:44:00,
2013-03-21 03:49:00,38.5,31.8,30.00,SW,215,2.0,4.9,77,0.00,,,-99.99,FreeWX-Wi 1.01,2013-03-21 10:49:00,
2013-03-21 03:54:00,38.5,31.8,30.00,SW,216,2.0,8.7,77,0.00,,,-99.99,FreeWX-Wi 1.01,2013-03-21 10:54:00,
2013-03-21 04:00:00,38.5,31.8,30.00,SW,214,2.0,8.7,77,0.00,,,-99.99,FreeWX-Wi 1.01,2013-03-21 11:00:00,
2013-03-21 04:05:00,38.5,31.8,30.00,SSW,213,2.0,3.6,77,0.00,,,-99.99,FreeWX-Wi 1.01,2013-03-21 11:05:00,
2013-03-21 04:10:00,38.3,31.8,30.00,SSW,211,2.0,5.4,77,0.00,,,-99.99,FreeWX-Wi 1.01,2013-03-21 11:10:00,
2013-03-21 04:15:00,38.3,31.8,30.00,SSW,209,2.0,4.9,77,0.00,,,-99.99,FreeWX-Wi 1.01,2013-03-21 11:15:00,